Regional Weather Roundup
Issued by NWS

Home | Current Version | Previous Version | Graphics & Text | Print | Product List | Glossary Off
Versions: 1 2 3 4 5 6 7 8 9 10 11 12 13 14 15 16 17 18 19 20 21 22 23 24 25 26 27 28 29 30 31 32 33 34 35 36 37 38 39 40 41 42 43 44 45 46 47 48 49 50

000
ASUS43 KDTX 221510
RWRMI
MICHIGAN HOURLY REGIONAL WEATHER ROUNDUP
NATIONAL WEATHER SERVICE DETROIT/PONTIAC MI
1100 AM EDT SUN APR 22 2018

NOTE: "FAIR" INDICATES FEW OR NO CLOUDS BELOW 12,000 FEET WITH NO
SIGNIFICANT WEATHER AND/OR OBSTRUCTION TO VISIBILITY.

MIZ047>049-052>055-059>063-066>070-074>076-081>083-221600-
SOUTHEAST LOWER MICHIGAN

CITY           SKY/WX    TMP DP  RH WIND       PRES   REMARKS
ADRIAN         FAIR      54  27  35 E15       30.42S
ALMA           FAIR      54  28  35 E5        30.43S
ANN ARBOR      FAIR      54  28  36 E8        30.42R
BAD AXE        FAIR      55  17  22 CALM      30.45S
CARO           FAIR      56  23  27 N5        30.43S
DETROIT CITY   FAIR      53  26  35 E10       30.44S
DETROIT        FAIR      54  25  32 E8        30.43S
FLINT          FAIR      55  27  34 E9        30.42F
GROSSE ILE     FAIR      53  29  39 NE8       30.42S
HILLSDALE      FAIR      54  23  30 E14G20    30.40R
HOWELL         FAIR      55  22  27 E7        30.41F

CITY           SKY/WX    TMP DP  RH WIND       PRES   REMARKS
JACKSON        FAIR      54  25  32 E9        30.41R
LAMBERTVILLE   FAIR      53  26  35 E8        30.41S
LANSING        FAIR      56  25  30 E5        30.42S
LAPEER         FAIR      55  25  31 SE3       30.43F
MASON          FAIR      56  19  23 SE8       30.42S
MONROE         FAIR      54  24  31 E9G17     30.42R
MT. CLEMENS    MOSUNNY   51  30  43 E8        30.42F
PONTIAC        FAIR      53  26  35 E8        30.42S
PORT HOPE        N/A     45  33  63 E6        30.44S
PORT HURON     FAIR      54  25  32 SE5       30.45S
TRI CITIES     FAIR      55  33  43 E6        30.44S
MIDLAND        FAIR      55  32  41 E6        30.43R
TROY           FAIR      53  25  33 NE7       30.44F
SAGINAW HB     FAIR      54  28  37 E3        30.43S
$$
MIZ043>046-050>051-056>058-064>065-071>073-077>080-221600-
SOUTHWEST LOWER MICHIGAN

CITY           SKY/WX    TMP DP  RH WIND       PRES   REMARKS
BATTLE CREEK   FAIR      53  25  33 SE8       30.41S
BENTON HARBOR  FAIR      56  23  27 E14G20    30.38F
BIG RAPIDS     FAIR      56  21  25 E3        30.41S
COLDWATER      FAIR      55  25  32 SE10G17   30.40S
FREMONT        FAIR      56   8  14 SE3       30.42R
HOLLAND        FAIR      55  26  32 E7        30.42S
GRAND RAPIDS   PTSUNNY   55  26  32 SE7       30.42R
IONIA          FAIR      55  26  32 SE5       30.41S
KALAMAZOO      FAIR      56  22  26 E8        30.41S
LUDINGTON      FAIR      55  31  41 SW3       30.41S
MARSHALL       FAIR      53  22  29 SE9       30.41S
MOUNT PLEASANT FAIR      55  35  46 CALM      30.42S
MUSKEGON       FAIR      57  28  33 E5        30.42R
SOUTH HAVEN    FAIR      56  20  24 SE10      30.40F
$$
MIZ016>042-221600-
NORTHERN LOWER MICHIGAN

CITY           SKY/WX    TMP DP  RH WIND       PRES   REMARKS
ALPENA         FAIR      51  20  29 CALM      30.46R
BEAVER ISLAND  FAIR      53  19  26 E5        30.43S
BELLAIRE       FAIR      50  24  36 CALM      30.44S
CADILLAC       FAIR      56  22  26 CALM      30.40S
CHARLEVOIX     FAIR      51  18  27 E5        30.46S
FRANKFORT      FAIR      53  26  35 CALM      30.42S
GAYLORD        FAIR      49  23  36 S6        30.42S
GRAYLING       FAIR      51  25  36 CALM      30.42S
HARBOR SPRINGS FAIR      52  16  24 NE6       30.43F
HOUGHTON LAKE  FAIR      53  30  41 W5        30.43S
MANISTEE       FAIR      55  22  27 CALM      30.41S
OSCODA         FAIR      47  25  43 E6        30.46R
PELLSTON       FAIR      51  20  29 S6        30.44S
ROGERS CITY    FAIR      45  28  50 N3        30.45S
TRAVERSE CITY  FAIR      47  25  42 N3        30.42F
$$
MIZ007>008-015-221600-
EASTERN UPPER MICHIGAN

CITY           SKY/WX    TMP DP  RH WIND       PRES   REMARKS
KINROSS        FAIR      49  23  36 CALM      30.44S
MACKINAC ISLAN FAIR      51  22  32 CALM      30.44S
NEWBERRY       FAIR      48  17  29 S7        30.42S
S. S. MARIE    FAIR      49  25  39 E3        30.43S
MUNISING         N/A     53  28  38 SW7       30.39F
$$
MIZ004>006-011>014-085-221600-
CENTRAL UPPER MICHIGAN

CITY           SKY/WX    TMP DP  RH WIND       PRES   REMARKS
MANISTIQUE     FAIR      46  19  32 S5        30.43S
ESCANABA       FAIR      45  29  53 SE6       30.42S
MENOMINEE      FAIR      51  32  48 SE5       30.42S
SAWYER-GWINN   SUNNY     45  25  45 CALM      30.38F
$$
MIZ001>003-009>011-084-221600-
WESTERN UPPER MICHIGAN

CITY           SKY/WX    TMP DP  RH WIND       PRES   REMARKS
IRON MOUNTAIN  FAIR      50  23  34 S5        30.38S
HOUGHTON       FAIR      46  21  37 SE6       30.38S
COPPER HARBOR    N/A     52  10  18 SW7       30.38F
IRONWOOD       FAIR      52  18  26 CALM      30.38F
$$

ABBREVIATIONS USED IN REMARKS
   TC - TEMPERATURE IN CELSIUS
  WCI - WIND CHILL INDEX
   HX - HEAT INDEX
  VSB - VISIBILITY





USA.gov is the U.S. government's official web portal to all federal, state and local government web resources and services.